FW8871 Weather Reports


Display with metric or nautical units.
time (UTC)temp
F
wind
direction
speed
MPH
gust
MPH
rain 1hr
in
rain 24hr
in
rain mn
in
humidity
%
barometer
mb
20260510230550 69 0 0.0 6.0 0.00 0.10 0.10 33 1023.4
20260510230059 70 0 0.0 7.0 0.00 0.10 0.10 32 1023.3
20260510225547 70 27 0.0 7.0 0.00 0.10 0.10 33 1023.3
20260510225047 70 0 0.0 7.0 0.00 0.10 0.10 34 1023.3
20260510224558 69 0 0.0 6.0 0.00 0.10 0.10 35 1023.4
20260510224046 69 0 0.0 6.0 0.00 0.10 0.10 34 1023.2
20260510223547 69 0 0.0 6.0 0.00 0.10 0.10 32 1023.3
20260510223049 69 0 0.0 7.0 0.00 0.10 0.10 34 1023.5
20260510222548 69 180 0.0 11.0 0.00 0.10 0.10 32 1023.5
20260510222050 69 0 3.0 11.0 0.00 0.10 0.10 34 1023.5
20260510221600 69 103 3.0 9.0 0.00 0.10 0.10 34 1023.5
20260510221048 68 82 0.0 5.0 0.00 0.10 0.10 34 1023.6
20260510220551 68 0 1.0 7.0 0.00 0.10 0.10 35 1023.6
20260510220056 67 46 1.0 8.0 0.00 0.10 0.10 34 1023.6
20260510215546 68 0 0.0 8.0 0.00 0.11 0.10 35 1023.5
20260510215049 68 44 2.0 9.0 0.00 0.11 0.10 34 1023.6
20260510214555 68 67 1.0 9.0 0.00 0.11 0.10 33 1023.6
20260510214047 69 17 0.0 2.0 0.00 0.11 0.10 33 1023.6
20260510213547 68 0 0.0 10.0 0.00 0.11 0.10 32 1023.7
20260510213052 68 0 2.0 10.0 0.00 0.11 0.10 31 1023.9
20260510212549 69 37 0.0 10.0 0.00 0.11 0.10 35 1023.9
20260510212050 68 0 2.0 11.0 0.00 0.11 0.10 34 1024.0
20260510211556 68 98 5.0 11.0 0.00 0.11 0.10 34 1024.1
20260510211046 68 11 0.0 10.0 0.00 0.11 0.10 35 1024.0
20260510210551 68 357 1.0 10.0 0.00 0.11 0.10 34 1024.1
20260510210053 67 153 4.0 10.0 0.00 0.11 0.10 32 1024.0
20260510205551 67 79 4.0 8.0 0.00 0.11 0.10 31 1024.1
20260510205050 67 0 0.0 11.0 0.00 0.11 0.10 35 1024.1
20260510204600 67 328 3.0 11.0 0.00 0.11 0.10 33 1024.1
20260510204050 67 0 1.0 7.0 0.00 0.11 0.10 37 1024.2
20260510203547 66 0 2.0 11.0 0.00 0.11 0.10 35 1024.2
20260510203056 66 89 3.0 14.0 0.00 0.11 0.10 37 1024.3
20260510202548 66 10 2.0 14.0 0.00 0.11 0.10 36 1024.4
20260510202046 65 36 8.0 14.0 0.00 0.11 0.10 37 1024.4
20260510201553 66 46 4.0 13.0 0.00 0.11 0.10 38 1024.5
20260510201046 66 50 2.0 17.0 0.00 0.11 0.10 40 1024.6
20260510200547 65 0 4.0 17.0 0.00 0.11 0.10 39 1024.6
20260510200115 65 11 9.0 15.0 0.00 0.11 0.10 40 1024.5
20260510195551 65 349 9.0 18.0 0.00 0.11 0.10 41 1024.5
20260510195047 65 27 6.0 18.0 0.00 0.11 0.10 40 1024.5
20260510194559 65 359 7.0 15.0 0.00 0.11 0.10 39 1024.5
20260510194047 65 20 4.0 15.0 0.00 0.11 0.10 42 1024.5
20260510193548 65 56 7.0 17.0 0.00 0.11 0.10 41 1024.5
20260510193103 65 15 1.0 17.0 0.00 0.11 0.10 41 1024.5
20260510192552 65 29 5.0 17.0 0.00 0.11 0.10 41 1024.5
20260510192048 65 98 8.0 16.0 0.00 0.11 0.10 42 1024.5
20260510191558 65 8 5.0 19.0 0.00 0.11 0.10 42 1024.5
20260510191048 64 80 5.0 19.0 0.00 0.11 0.10 43 1024.6
20260510190549 64 56 5.0 14.0 0.00 0.11 0.10 44 1024.6
20260510190053 64 108 2.0 15.0 0.00 0.11 0.10 46 1024.7
20260510185548 63 79 4.0 16.0 0.00 0.11 0.10 48 1024.8
20260510185048 63 61 5.0 16.0 0.00 0.11 0.10 47 1024.8
20260510184553 63 16 5.0 11.0 0.00 0.11 0.10 46 1024.9
20260510184048 63 11 2.0 21.0 0.00 0.11 0.10 47 1024.9
20260510183548 63 0 3.0 21.0 0.00 0.11 0.10 49 1024.9
20260510183057 63 4 0.0 14.0 0.00 0.11 0.10 49 1024.8
20260510182549 62 1 6.0 14.0 0.00 0.11 0.10 49 1025.0
20260510182048 62 106 3.0 11.0 0.00 0.11 0.10 51 1025.0
20260510181549 62 77 4.0 12.0 0.00 0.11 0.10 49 1025.1
20260510181048 62 15 3.0 13.0 0.00 0.11 0.10 51 1025.2
20260510180548 61 97 3.0 13.0 0.00 0.11 0.10 54 1025.0
20260510180053 61 75 3.0 13.0 0.00 0.11 0.10 55 1025.1
20260510175547 61 6 2.0 14.0 0.00 0.11 0.10 55 1025.1
20260510175048 61 0 4.0 14.0 0.00 0.11 0.10 54 1025.0
20260510174553 61 46 6.0 15.0 0.00 0.11 0.10 54 1025.0
20260510174049 60 44 6.0 15.0 0.00 0.11 0.10 56 1025.2
20260510173549 60 0 3.0 14.0 0.00 0.11 0.10 56 1025.1
20260510173102 61 14 4.0 11.0 0.00 0.11 0.10 55 1024.9
20260510172548 60 46 4.0 11.0 0.00 0.11 0.10 64 1024.9
20260510172048 59 51 3.0 12.0 0.00 0.11 0.10 65 1024.9
20260510171556 59 77 5.0 12.0 0.00 0.11 0.10 64 1024.9
20260510171047 59 68 5.0 11.0 0.00 0.11 0.10 67 1024.8
20260510170547 58 82 4.0 12.0 0.00 0.11 0.10 70 1024.8
20260510170101 57 73 4.0 12.0 0.00 0.11 0.10 71 1024.8
20260510165548 56 70 3.0 10.0 0.00 0.11 0.10 72 1024.9
20260510165048 56 51 3.0 10.0 0.00 0.11 0.10 73 1024.8
20260510164553 56 35 4.0 10.0 0.00 0.11 0.10 73 1024.8
20260510164047 55 67 3.0 9.0 0.00 0.11 0.10 76 1024.7
20260510163547 55 51 0.0 11.0 0.00 0.11 0.10 75 1024.6
20260510163051 55 0 4.0 11.0 0.00 0.11 0.10 75 1024.7
20260510162547 54 49 4.0 14.0 0.00 0.11 0.10 79 1024.7
20260510162048 53 52 4.0 14.0 0.00 0.11 0.10 79 1024.6
20260510161552 53 0 1.0 11.0 0.00 0.11 0.10 79 1024.7
20260510161048 53 304 3.0 11.0 0.00 0.11 0.10 81 1024.6
20260510160548 52 329 3.0 10.0 0.00 0.11 0.10 83 1024.4
20260510160051 51 110 3.0 12.0 0.00 0.11 0.10 86 1024.3
20260510155550 50 7 4.0 12.0 0.00 0.11 0.10 87 1024.1
20260510155048 50 64 0.0 11.0 0.01 0.11 0.10 90 1024.2
20260510154549 50 343 4.0 11.0 0.02 0.11 0.10 91 1024.0
20260510154047 49 115 2.0 8.0 0.02 0.11 0.10 92 1024.1
20260510153547 49 15 2.0 10.0 0.03 0.11 0.10 92 1024.2
20260510153051 48 88 5.0 10.0 0.04 0.11 0.10 92 1024.2
20260510152550 48 63 1.0 8.0 0.05 0.11 0.10 92 1024.1
20260510152049 47 54 0.0 11.0 0.06 0.11 0.10 92 1024.1
20260510151552 47 56 2.0 13.0 0.07 0.11 0.10 92 1023.9
20260510151047 47 11 8.0 13.0 0.07 0.11 0.10 92 1024.0
20260510150550 46 3 8.0 13.0 0.08 0.11 0.10 92 1024.0
20260510150051 46 14 3.0 9.0 0.08 0.11 0.10 92 1023.7
20260510145547 46 3 3.0 9.0 0.08 0.11 0.10 92 1023.4
20260510145048 46 65 5.0 9.0 0.07 0.10 0.09 92 1023.4
20260510144552 46 107 0.0 4.0 0.06 0.09 0.08 92 1023.6
20260510144047 46 0 0.0 6.0 0.07 0.09 0.08 91 1023.8
20260510143548 46 0 0.0 6.0 0.06 0.08 0.07 91 1024.0
20260510143051 46 79 0.0 4.0 0.05 0.07 0.06 91 1024.1
20260510142551 46 0 0.0 7.0 0.04 0.06 0.05 91 1024.4
20260510142052 46 0 0.0 10.0 0.03 0.05 0.04 90 1024.5
20260510141601 46 40 4.0 16.0 0.02 0.04 0.03 90 1024.5
20260510141047 46 23 7.0 16.0 0.02 0.04 0.03 90 1024.6
20260510140547 46 11 9.0 14.0 0.02 0.03 0.02 90 1024.6
20260510140055 46 16 8.0 14.0 0.02 0.03 0.02 90 1024.6
20260510135547 46 356 11.0 17.0 0.02 0.03 0.02 90 1024.5
20260510135047 46 4 10.0 19.0 0.02 0.03 0.02 89 1024.3
20260510134604 47 21 12.0 21.0 0.02 0.03 0.02 89 1024.2
20260510134049 47 3 15.0 21.0 0.01 0.02 0.01 88 1024.0
20260510133548 48 353 14.0 21.0 0.01 0.02 0.01 86 1023.9
20260510133107 48 11 14.0 19.0 0.01 0.02 0.01 86 1023.7
20260510132548 48 348 12.0 17.0 0.01 0.02 0.01 87 1023.8
20260510132047 48 331 12.0 17.0 0.01 0.02 0.01 87 1023.7
20260510131601 48 19 12.0 16.0 0.01 0.02 0.01 87 1023.6
20260510131047 48 350 12.0 17.0 0.01 0.02 0.01 86 1023.5
20260510130549 48 10 11.0 17.0 0.00 0.01 0.00 86 1023.3
20260510130052 49 3 12.0 20.0 0.00 0.01 0.00 86 1023.3
20260510125546 49 4 14.0 22.0 0.00 0.01 0.00 86 1023.1
20260510125047 50 11 14.0 22.0 0.00 0.01 0.00 85 1023.0
20260510124557 50 7 12.0 17.0 0.00 0.01 0.00 83 1022.9
20260510124047 50 36 12.0 17.0 0.00 0.01 0.00 83 1022.7
20260510123547 50 41 12.0 17.0 0.00 0.01 0.00 82 1022.4
20260510123110 50 345 12.0 17.0 0.00 0.01 0.00 82 1022.2
20260510122547 50 6 12.0 16.0 0.00 0.01 0.00 81 1022.0
20260510122047 50 12 12.0 18.0 0.00 0.01 0.00 80 1021.8
20260510121551 51 351 10.0 21.0 0.00 0.01 0.00 78 1021.7
20260510121047 51 7 14.0 22.0 0.00 0.01 0.00 77 1021.5
20260510120547 51 357 15.0 22.0 0.00 0.01 0.00 77 1021.3
20260510120052 51 342 14.0 22.0 0.00 0.01 0.00 76 1021.1
20260510115550 51 347 13.0 22.0 0.00 0.01 0.00 75 1021.1
20260510115047 51 14 16.0 22.0 0.00 0.01 0.00 73 1021.0
20260510114551 52 14 11.0 22.0 0.00 0.01 0.00 72 1020.8
20260510114047 52 14 10.0 22.0 0.00 0.01 0.00 72 1021.0
20260510113548 53 8 13.0 22.0 0.00 0.01 0.00 72 1020.9
20260510113053 53 12 9.0 17.0 0.00 0.01 0.00 72 1020.8
20260510112548 53 20 2.0 11.0 0.00 0.01 0.00 70 1020.3
20260510112048 53 47 4.0 13.0 0.00 0.01 0.00 69 1019.9
20260510111559 53 101 4.0 13.0 0.00 0.01 0.00 68 1019.6
20260510111048 53 72 5.0 20.0 0.00 0.01 0.00 67 1019.2
20260510110549 54 41 10.0 20.0 0.00 0.01 0.00 66 1019.1
20260510110052 54 86 10.0 15.0 0.00 0.01 0.00 65 1018.7
20260510105548 53 88 8.0 15.0 0.00 0.01 0.00 65 1018.8
20260510105047 54 82 4.0 10.0 0.00 0.01 0.00 65 1018.7
20260510104554 54 68 5.0 11.0 0.00 0.01 0.00 65 1018.8
20260510104049 54 108 5.0 12.0 0.00 0.01 0.00 65 1018.8
20260510103547 54 43 5.0 12.0 0.00 0.01 0.00 65 1018.8
20260510103058 54 122 6.0 12.0 0.00 0.01 0.00 65 1019.1
20260510102548 54 62 2.0 10.0 0.00 0.01 0.00 65 1019.5
20260510102049 54 16 3.0 10.0 0.00 0.01 0.00 64 1019.7
20260510101552 54 72 3.0 9.0 0.00 0.01 0.00 65 1019.7
20260510101048 54 110 3.0 12.0 0.00 0.01 0.00 64 1019.6
20260510100549 54 94 4.0 12.0 0.00 0.01 0.00 64 1019.5
20260510100055 54 117 2.0 10.0 0.00 0.01 0.00 65 1019.3
20260510095548 55 44 3.0 8.0 0.00 0.01 0.00 65 1019.2
20260510095048 55 70 2.0 10.0 0.00 0.01 0.00 64 1019.2
20260510094553 55 80 4.0 10.0 0.00 0.01 0.00 64 1019.2
20260510094047 55 59 4.0 10.0 0.00 0.01 0.00 65 1019.1
20260510093548 55 102 4.0 10.0 0.00 0.01 0.00 65 1019.0
20260510093051 55 248 5.0 13.0 0.00 0.01 0.00 64 1018.8
20260510092548 55 342 4.0 14.0 0.00 0.01 0.00 64 1018.7
20260510092047 56 87 4.0 17.0 0.00 0.01 0.00 64 1018.4
20260510091552 56 67 6.0 17.0 0.00 0.01 0.00 64 1018.5
20260510091047 56 32 6.0 15.0 0.00 0.01 0.00 64 1018.6
20260510090547 56 23 7.0 15.0 0.00 0.01 0.00 64 1018.4
20260510090057 55 34 6.0 14.0 0.00 0.01 0.00 65 1018.3
20260510085552 56 86 8.0 18.0 0.00 0.01 0.00 65 1018.1
20260510085048 55 41 8.0 18.0 0.00 0.01 0.00 65 1018.1
20260510084550 55 11 9.0 18.0 0.00 0.01 0.00 65 1018.2
20260510084048 55 20 6.0 15.0 0.00 0.01 0.00 66 1018.4
20260510083548 55 23 8.0 17.0 0.00 0.01 0.00 66 1018.3
20260510083056 55 20 9.0 17.0 0.00 0.01 0.00 66 1018.2
20260510082548 55 65 8.0 17.0 0.00 0.01 0.00 66 1018.2
20260510082048 55 33 9.0 22.0 0.00 0.01 0.00 67 1018.0
20260510081553 55 16 10.0 22.0 0.00 0.01 0.00 67 1017.9
20260510081048 55 56 9.0 22.0 0.00 0.01 0.00 68 1018.1
20260510080548 55 23 7.0 13.0 0.00 0.01 0.00 69 1018.1
20260510080050 55 13 6.0 12.0 0.00 0.01 0.00 69 1018.2
20260510075547 55 39 4.0 12.0 0.00 0.01 0.00 69 1018.3
20260510075049 55 53 6.0 15.0 0.00 0.01 0.00 69 1018.5
20260510074549 55 2 7.0 15.0 0.00 0.01 0.00 69 1018.5
20260510074048 55 18 6.0 14.0 0.00 0.01 0.00 70 1018.6
20260510073548 55 31 5.0 15.0 0.00 0.01 0.00 70 1018.7
20260510073112 55 32 6.0 16.0 0.00 0.01 0.00 70 1018.6
20260510072549 55 49 8.0 16.0 0.00 0.01 0.00 70 1018.6
20260510072048 55 39 4.0 15.0 0.00 0.01 0.00 70 1018.7
20260510071604 55 30 7.0 14.0 0.00 0.01 0.00 71 1018.7
20260510071048 55 66 6.0 13.0 0.00 0.01 0.00 71 1018.5
20260510070549 55 44 6.0 17.0 0.00 0.01 0.00 72 1018.4
20260510070051 55 40 5.0 17.0 0.00 0.01 0.00 73 1018.4
20260510065552 55 55 6.0 18.0 0.00 0.01 0.00 74 1018.3
20260510065047 55 46 5.0 18.0 0.00 0.01 0.00 75 1018.2
20260510064602 55 25 10.0 18.0 0.00 0.01 0.00 77 1017.9
20260510064049 55 35 10.0 19.0 0.00 0.01 0.00 79 1018.0
20260510063548 55 63 11.0 19.0 0.00 0.01 0.00 80 1018.0
20260510063050 55 19 9.0 15.0 0.00 0.01 0.00 80 1017.9
20260510062548 55 13 9.0 15.0 0.00 0.01 0.00 80 1017.6
20260510062049 55 34 7.0 14.0 0.00 0.01 0.00 80 1017.3
20260510061555 54 63 6.0 10.0 0.00 0.01 0.00 81 1016.5
20260510061048 54 27 3.0 9.0 0.00 0.01 0.00 81 1016.2
20260510060548 54 176 2.0 8.0 0.00 0.01 0.00 81 1016.0
20260510060049 54 27 3.0 7.0 0.00 0.01 0.00 81 1015.9
20260510055547 54 53 1.0 7.0 0.00 0.01 0.00 81 1015.7
20260510055048 54 0 0.0 8.0 0.00 0.01 0.00 81 1015.6
20260510054551 54 0 2.0 8.0 0.00 0.01 0.00 81 1015.4
20260510054047 54 30 3.0 9.0 0.00 0.01 0.00 81 1015.2
20260510053547 54 41 3.0 9.0 0.00 0.01 0.00 81 1015.1
20260510053054 54 94 2.0 8.0 0.00 0.01 0.00 80 1014.9
20260510052548 54 82 3.0 9.0 0.00 0.01 0.00 79 1015.0
20260510052048 54 25 3.0 9.0 0.00 0.01 0.00 79 1014.9
20260510051557 54 354 3.0 8.0 0.00 0.01 0.00 78 1014.9
20260510051047 54 65 1.0 6.0 0.00 0.01 0.00 77 1014.9
20260510050547 55 62 0.0 4.0 0.00 0.01 0.00 76 1014.9
20260510050056 55 0 0.0 4.0 0.00 0.01 0.00 75 1014.7
20260510045548 56 0 1.0 5.0 0.00 0.01 0.01 75 1014.7
20260510045047 56 29 1.0 5.0 0.00 0.01 0.01 74 1014.3
20260510044553 56 0 2.0 5.0 0.00 0.01 0.01 73 1014.2
20260510044051 57 0 0.0 4.0 0.00 0.01 0.01 73 1014.3
20260510043547 57 39 1.0 4.0 0.00 0.01 0.01 73 1014.4
20260510043105 58 74 1.0 6.0 0.00 0.01 0.01 72 1014.5
20260510042548 58 77 2.0 6.0 0.00 0.01 0.01 72 1014.5
20260510042048 58 102 3.0 6.0 0.00 0.01 0.01 72 1014.4
20260510041556 58 91 2.0 5.0 0.00 0.01 0.01 71 1014.2
20260510041048 59 83 2.0 7.0 0.00 0.01 0.01 71 1014.0
20260510040550 59 105 1.0 9.0 0.00 0.01 0.01 70 1013.9
20260510035548 60 103 4.0 7.0 0.00 0.01 0.01 70 1013.6
20260510035048 60 95 3.0 8.0 0.00 0.01 0.01 70 1013.5
20260510034551 61 86 4.0 9.0 0.00 0.01 0.01 69 1013.2
20260510034045 61 100 6.0 11.0 0.00 0.01 0.01 68 1013.1
20260510033548 62 74 7.0 13.0 0.00 0.01 0.01 67 1012.9
20260510033052 62 87 8.0 14.0 0.00 0.01 0.01 67 1012.7
20260510032545 63 86 9.0 14.0 0.00 0.01 0.01 66 1012.7
20260510032048 63 53 8.0 14.0 0.00 0.01 0.01 65 1012.4
20260510031556 64 77 8.0 12.0 0.00 0.01 0.01 64 1012.3
20260510031048 64 91 4.0 12.0 0.00 0.01 0.01 64 1012.3
20260510030547 64 71 5.0 12.0 0.00 0.01 0.01 63 1012.1
20260510030051 65 89 6.0 14.0 0.00 0.01 0.01 61 1011.9
20260510025547 65 88 1.0 19.0 0.00 0.01 0.01 58 1011.8
20260510025049 65 43 11.0 19.0 0.00 0.01 0.01 59 1011.4
20260510024551 65 86 13.0 19.0 0.00 0.01 0.01 58 1010.7
20260510024048 65 98 0.0 4.0 0.00 0.01 0.01 56 1010.5
20260510023546 65 0 0.0 4.0 0.00 0.01 0.01 56 1010.1
20260510023049 66 0 0.0 0.0 0.00 0.01 0.01 54 1009.9
20260510022549 67 0 0.0 6.0 0.00 0.01 0.01 51 1009.7
20260510022047 67 0 3.0 7.0 0.00 0.01 0.01 49 1009.6
20260510021554 68 0 4.0 7.0 0.00 0.01 0.01 47 1009.5
20260510021044 69 358 5.0 7.0 0.00 0.01 0.01 45 1009.1
20260510020547 70 355 5.0 10.0 0.00 0.01 0.01 43 1009.0
20260510020051 71 353 6.0 10.0 0.00 0.01 0.01 40 1008.7
20260510015548 72 10 7.0 12.0 0.00 0.01 0.01 37 1008.6
20260510015046 73 328 7.0 13.0 0.00 0.01 0.01 35 1008.4
20260510014550 74 343 9.0 13.0 0.00 0.01 0.01 35 1008.3
20260510014048 74 319 8.0 11.0 0.00 0.01 0.01 34 1008.3
20260510013552 75 323 8.0 13.0 0.00 0.01 0.01 33 1008.1
20260510013051 75 322 8.0 13.0 0.00 0.01 0.01 33 1007.9
20260510012548 76 329 9.0 12.0 0.00 0.01 0.01 32 1007.8
20260510012048 77 325 8.0 12.0 0.00 0.01 0.01 32 1007.7
20260510011551 78 336 7.0 10.0 0.00 0.01 0.01 31 1007.4
20260510011045 79 343 6.0 13.0 0.00 0.01 0.01 31 1007.4
20260510010547 80 336 9.0 14.0 0.00 0.01 0.01 29 1007.3
20260510010059 81 310 8.0 14.0 0.00 0.01 0.01 29 1007.2
20260510005545 81 11 10.0 12.0 0.00 0.01 0.01 28 1007.1
20260510005049 82 345 8.0 12.0 0.00 0.01 0.01 28 1007.2
20260510004549 83 326 6.0 12.0 0.00 0.01 0.01 27 1007.1
20260510004051 84 295 2.0 3.0 0.00 0.01 0.01 30 1007.2
20260510003550 84 229 0.0 1.0 0.00 0.01 0.01 30 1007.1
20260510003057 84 0 0.0 0.0 0.00 0.01 0.01 29 1007.2
20260510002551 85 0 0.0 0.0 0.00 0.01 0.01 29 1007.2
20260510002047 85 0 0.0 0.0 0.00 0.01 0.01 27 1007.2
20260510001554 84 0 0.0 5.0 0.00 0.01 0.01 29 1007.2
20260510001047 83 0 0.0 5.0 0.00 0.01 0.01 29 1007.2
20260510000548 83 0 4.0 5.0 0.00 0.01 0.01 29 1007.2
20260510000055 82 0 0.0 7.0 0.00 0.01 0.01 34 1007.1
20260509235548 81 0 2.0 15.0 0.00 0.01 0.01 33 1007.2
20260509235049 79 264 8.0 15.0 0.00 0.01 0.01 33 1007.0
20260509234548 78 213 9.0 15.0 0.00 0.01 0.01 37 1007.0
20260509234048 78 162 5.0 8.0 0.00 0.01 0.01 39 1007.1
20260509233553 77 0 3.0 9.0 0.00 0.01 0.01 39 1007.3
20260509233053 77 187 5.0 9.0 0.00 0.01 0.01 39 1007.3
20260509232548 77 160 5.0 11.0 0.00 0.01 0.01 39 1007.3
20260509232048 78 164 6.0 16.0 0.00 0.01 0.01 41 1007.3
20260509231554 78 193 8.0 16.0 0.00 0.01 0.01 39 1007.3
20260509231049 79 143 12.0 16.0 0.00 0.01 0.01 37 1007.3